GFSNGP_925_rhum_036.txt.gz
RH
24 19 19 19 19 18 20 36 42 39 36 26 20 22 23 18 18 14 15 17 20 30 36 39 44 46 50 54 59 61 63 72 83 83 84 89 94 94 90 91 93 93 90 89
37 24 19 22 18 16 17 17 17 19 20 15 15 19 24 24 16 18 18 20 23 26 38 43 48 52 61 64 63 63 63 70 72 73 74 81 90 95 93 91 91 90 89 88
46 30 27 35 24 17 16 15 17 23 19 14 14 13 13 17 15 17 22 27 32 38 45 48 53 59 61 61 59 59 62 66 66 66 71 73 73 74 75 77 77 78 77 75
55 61 56 25 16 14 16 15 15 14 13 12 12 12 14 15 18 22 28 33 38 40 42 46 49 51 54 54 57 58 59 62 64 67 66 64 64 68 72 73 74 74 75 75
62 54 33 21 20 21 23 22 16 17 14 12 11 12 22 18 17 28 33 37 38 40 42 44 47 47 48 49 52 55 57 59 61 63 64 66 69 70 72 73 72 72 71 70
63 61 62 36 24 17 16 33 17 15 17 16 16 40 26 25 29 32 34 34 36 39 41 42 43 44 46 48 50 53 56 59 60 62 66 73 78 78 74 74 76 73 79 80
72 65 47 27 20 17 37 36 20 20 19 20 25 26 25 29 33 31 32 35 38 39 41 43 44 46 49 52 55 57 58 59 63 74 82 80 81 83 84 86 85 79 78 75
76 70 68 26 22 30 29 29 23 23 22 20 20 34 33 33 34 34 35 37 39 41 43 45 47 49 52 54 56 61 69 72 76 77 77 80 79 74 67 62 64 64 66 66
73 59 39 31 30 27 26 27 26 24 23 21 35 35 35 37 37 35 35 38 39 44 46 47 48 50 53 59 64 66 69 68 63 55 50 48 48 45 47 57 55 58 49 52
60 48 51 36 32 24 21 26 21 20 23 22 36 36 38 38 36 37 36 38 41 46 48 49 49 51 57 59 60 56 51 49 47 44 41 39 36 37 51 54 50 47 52 54
51 44 46 32 30 31 28 27 24 23 23 24 34 36 37 38 38 37 37 39 43 48 50 51 51 55 54 53 51 51 49 46 46 39 35 39 43 50 58 42 47 61 68 71
54 37 47 41 32 38 37 34 27 28 28 26 33 36 36 38 38 37 38 42 47 50 51 51 52 50 49 47 48 46 47 51 46 37 33 37 50 48 48 49 49 42 38 44
37 39 42 46 39 34 38 38 32 34 29 28 32 33 36 39 39 37 42 46 47 50 51 51 48 47 46 46 44 46 51 54 50 45 42 42 42 51 85 69 66 69 67 64
36 36 40 42 44 39 38 35 31 30 29 32 33 34 38 42 43 43 46 47 50 52 51 49 48 50 48 46 45 46 46 45 46 47 51 48 52 54 53 58 66 77 79 67
42 42 46 48 46 40 39 40 40 39 33 34 37 41 44 48 48 47 49 51 53 51 50 50 47 44 42 43 47 46 52 60 65 67 67 62 59 58 58 57 60 62 61 64
53 52 48 48 47 43 43 45 47 41 40 48 48 49 47 48 51 56 55 57 54 54 58 54 50 46 42 45 47 49 58 73 75 72 66 63 58 60 58 61 63 64 66 70
66 68 64 62 56 52 50 48 47 52 56 58 61 61 74 76 76 76 75 73 74 76 74 62 57 48 45 44 76 94 91 66 64 65 63 67 70 68 65 67 71 70 68 74
64 63 63 61 58 60 64 82 88 86 87 86 87 86 84 85 89 95 98 94 93 96 95 95 94 84 85 85 85 79 75 73 74 74 70 78 79 74 72 76 76 76 78 78
78 81 83 86 86 90 94 95 95 94 93 93 93 96 96 96 96 98 97 96 96 95 96 95 95 94 90 89 87 86 86 85 73 68 83 79 78 82 83 85 87 82 82 87
90 90 90 92 94 94 94 97 96 96 98 96 96 95 95 96 97 97 97 96 96 96 95 95 94 94 82 53 68 83 86 88 78 72 80 78 90 95 81 88 88 91 93 89
96 95 94 93 95 96 97 97 96 96 97 97 95 95 95 97 97 97 95 93 97 95 96 95 89 74 77 66 64 89 90 90 87 89 91 91 90 88 92 90 94 93 92 96
96 95 95 95 95 96 97 97 97 96 96 96 97 96 96 96 97 97 96 95 96 95 96 93 74 74 60 78 87 93 90 90 91 89 91 94 93 92 92 93 95 94 96 88
95 95 95 94 94 96 96 96 97 97 96 97 97 97 97 97 96 94 94 96 96 96 95 92 74 67 65 100 93 91 95 90 91 96 93 92 93 95 88 92 95 93 92 97
95 95 96 97 94 90 92 96 96 97 97 98 97 97 96 96 96 95 95 95 94 93 91 89 70 67 78 97 94 93 92 92 90 95 97 94 94 97 97 94 95 96 97 99
95 96 96 94 91 94 96 97 96 97 96 97 97 96 96 96 95 97 94 93 87 97 87 87 85 82 95 95 95 94 90 92 96 85 88 98 97 98 95 94 98 98 98 94
92 93 95 96 96 96 96 93 92 96 94 93 97 94 92 92 95 94 88 92 90 90 90 97 90 90 94 91 83 88 91 96 94 95 98 97 94 91 91 95 98 99 100 100
90 88 84 85 88 89 88 93 90 86 89 96 94 95 94 96 96 94 96 93 88 95 93 88 95 95 96 94 95 92 91 92 97 100 95 98 94 92 96 100 100 100 95 94

GFSNGP_925_rhum_042.txt.gz
RH
69 50 30 28 30 33 33 37 47 40 47 34 33 34 32 30 25 23 25 25 43 45 49 59 64 65 55 49 57 63 75 76 60 65 78 99 100 100 99 99 100 97 96 94
78 52 38 31 26 30 29 34 37 33 37 34 29 31 31 29 26 24 24 25 35 46 52 69 77 78 76 70 74 78 84 92 95 100 100 100 100 98 100 100 100 99 100 94
89 64 48 50 32 26 34 31 31 43 38 30 31 31 34 29 26 25 26 28 30 48 56 68 76 76 84 87 94 100 100 100 100 100 100 100 100 100 100 100 98 97 99 99
97 80 93 44 27 23 30 30 28 26 24 27 26 24 27 30 26 27 29 31 45 53 69 74 77 79 83 88 92 95 99 100 100 100 100 100 99 93 88 85 81 89 95 96
93 95 70 45 37 33 35 32 27 28 23 21 22 20 25 29 24 23 32 40 52 59 73 78 76 76 78 81 83 87 91 93 94 97 99 99 93 90 86 82 81 81 83 84
98 88 96 58 37 30 27 47 27 24 25 27 25 34 34 29 32 42 54 65 74 71 73 74 72 71 74 79 81 83 81 81 81 80 80 81 81 80 78 74 76 78 78 77
95 94 86 65 54 35 51 49 37 26 29 29 35 37 28 45 49 56 57 64 65 69 71 70 68 68 74 74 77 75 74 73 71 69 68 69 69 68 70 72 78 84 91 96
93 98 94 65 58 61 68 66 61 57 31 26 35 42 48 52 58 58 62 64 62 66 66 64 65 65 72 74 73 71 70 70 70 70 71 71 72 79 79 82 92 97 98 100
82 74 62 65 66 55 64 73 67 66 57 40 41 46 52 55 56 57 57 58 58 62 66 63 62 63 73 80 74 73 74 80 79 79 80 80 81 83 84 83 86 100 96 95
82 58 59 56 53 64 55 62 62 58 58 48 51 51 51 54 57 57 58 60 59 62 67 70 64 67 71 77 76 78 85 84 82 84 88 87 86 86 81 81 85 97 98 100
70 58 51 51 47 59 50 60 60 55 58 54 52 56 62 60 58 56 59 60 59 64 70 75 72 76 77 76 74 79 81 79 76 75 75 72 71 73 66 67 69 82 87 86
78 50 46 45 43 50 44 55 56 60 63 52 48 50 51 58 59 56 65 67 70 72 75 77 75 75 74 73 72 70 63 61 60 63 59 49 41 40 38 40 49 58 62 58
85 74 61 55 43 53 51 49 58 57 53 52 58 60 60 59 60 67 68 69 70 69 68 70 71 70 66 63 57 49 52 53 52 53 53 51 56 62 78 75 68 64 62 60
76 73 68 65 66 60 55 53 51 50 53 60 51 57 61 72 70 69 68 64 61 62 65 68 68 70 64 56 47 46 52 57 61 66 66 66 68 71 75 83 88 92 91 83
81 77 79 74 70 73 71 68 74 75 72 72 68 68 68 69 65 60 58 58 60 63 67 71 77 83 72 64 62 67 66 68 66 69 72 75 81 91 93 94 95 94 95 93
79 82 81 86 86 82 78 77 79 79 77 76 75 72 68 67 68 71 71 71 75 86 91 95 97 86 74 71 74 80 83 83 86 89 94 95 96 96 96 96 95 94 95 95
96 95 94 94 93 92 92 86 85 85 85 83 82 82 81 82 83 88 94 97 99 99 99 98 98 97 96 96 95 95 96 96 96 96 96 96 95 95 96 95 95 96 95 91
96 98 97 93 94 94 94 92 90 89 89 89 90 89 89 90 93 95 97 97 97 96 96 96 96 96 96 96 96 96 95 95 95 95 95 95 95 95 95 95 95 95 92 91
84 88 89 88 92 90 90 91 93 94 92 90 90 93 95 95 96 96 97 96 95 94 97 96 96 95 95 96 95 95 95 95 96 96 95 95 95 95 95 95 95 96 96 97
91 92 89 91 92 92 92 95 94 94 96 95 95 94 94 96 96 96 96 95 97 97 96 96 95 95 95 95 95 95 95 95 96 95 95 95 96 96 96 96 96 95 95 96
95 94 94 94 95 96 96 96 94 95 97 96 94 94 95 96 96 96 92 91 98 96 96 95 94 95 96 95 95 95 95 95 94 96 96 95 92 95 96 93 92 94 93 90
95 94 95 95 94 95 96 97 96 96 96 96 96 96 95 96 96 97 97 96 97 95 94 94 95 96 95 94 94 91 89 90 91 92 93 94 94 95 97 99 99 97 97 99
95 95 95 94 94 95 96 96 97 96 96 97 98 98 98 99 98 90 92 100 96 91 84 94 96 92 88 87 85 85 89 93 94 88 87 96 97 99 93 89 89 98 100 100
94 94 96 94 85 85 90 96 97 99 99 100 100 98 95 98 100 99 94 80 73 74 74 76 87 82 75 68 70 84 92 94 96 97 96 92 88 85 85 90 99 100 100 100
95 95 93 89 90 95 95 92 92 94 97 99 100 100 100 96 96 97 97 100 94 95 99 100 94 87 80 87 91 92 90 90 92 90 91 92 91 85 84 91 98 100 100 100
91 88 90 96 98 99 99 97 97 98 95 98 100 100 99 99 98 99 99 97 98 97 97 96 95 92 89 89 93 95 93 90 98 99 100 97 90 89 96 100 98 91 84 89
97 93 92 91 89 94 93 95 99 100 99 98 99 98 98 99 100 98 92 86 87 93 95 91 82 76 76 84 88 88 91 95 94 86 81 88 97 100 99 97 95 94 97 96

GFSNGP_925_rhum_045.txt.gz
RH
86 63 55 58 57 48 38 34 42 38 45 34 34 34 33 33 28 27 26 32 41 48 49 51 50 50 49 51 59 68 74 79 80 83 86 89 97 90 100 100 100 100 97 90
86 54 55 58 52 50 42 34 42 36 41 34 32 33 32 34 32 28 27 27 31 44 50 56 56 56 58 53 50 57 70 79 84 90 93 94 98 100 100 100 100 100 100 100
84 75 62 56 62 48 38 30 36 42 35 28 35 37 35 31 34 31 28 28 28 42 44 52 61 57 62 63 62 64 76 84 84 82 90 99 100 100 100 100 100 100 100 100
97 81 72 33 47 35 44 33 28 30 30 31 32 30 33 32 31 33 31 30 30 28 55 56 68 74 78 86 87 88 96 100 100 100 100 100 100 100 100 100 100 100 100 100
94 95 64 43 40 46 73 72 43 31 28 25 23 24 26 29 35 32 31 29 28 28 48 76 75 83 88 98 100 100 100 100 100 100 100 100 100 100 100 100 96 92 92 97
98 94 82 26 40 45 61 80 49 59 43 31 27 37 32 25 29 36 38 38 58 70 79 86 87 85 93 98 100 100 100 100 100 100 99 100 100 97 92 88 89 89 97 99
94 94 84 59 54 60 93 79 70 67 69 58 41 27 27 28 32 41 51 71 77 82 84 84 84 85 92 94 96 96 98 99 100 100 100 98 94 91 88 86 88 94 98 100
87 99 91 52 77 76 81 68 71 67 67 72 65 54 42 41 50 65 71 81 80 85 85 83 82 83 88 90 89 89 90 91 92 94 96 93 89 86 84 89 99 100 100 100
82 79 59 67 64 64 63 71 69 72 63 69 66 51 50 57 62 67 73 79 77 80 80 78 78 79 86 92 84 83 83 84 83 81 82 81 82 89 94 98 100 100 100 100
77 52 52 49 54 58 58 69 61 59 67 68 62 58 54 62 68 73 72 74 73 75 78 80 74 76 83 86 83 83 90 94 93 90 93 91 92 94 96 100 100 100 100 100
63 57 57 49 54 56 60 60 62 61 61 64 67 61 57 63 67 69 69 69 70 76 81 88 82 86 86 85 82 90 90 92 91 91 91 92 91 92 92 97 97 96 97 92
85 85 90 68 53 58 61 53 54 65 55 55 56 59 60 74 71 71 78 75 80 84 86 88 86 88 89 86 80 83 86 86 83 79 77 75 71 71 68 78 86 90 90 84
93 85 85 81 67 67 65 66 62 66 65 66 57 60 64 72 78 78 75 72 75 79 80 80 79 77 77 78 79 79 80 79 72 68 68 68 74 81 91 87 56 49 46 47
84 84 88 82 86 73 73 72 65 67 70 71 73 70 77 76 70 68 69 71 74 78 80 80 78 76 71 69 68 71 76 77 78 79 71 66 66 75 81 89 99 100 96 93
89 79 85 83 80 77 73 72 76 78 76 74 67 66 65 66 68 68 72 78 83 87 89 90 92 92 79 76 75 79 82 86 82 85 89 92 94 94 94 96 96 96 96 96
94 81 84 89 87 86 84 84 85 85 80 79 79 79 82 85 89 93 95 92 90 95 98 99 99 99 93 92 94 96 96 97 96 96 96 96 96 96 96 96 96 96 96 96
96 95 95 94 91 92 91 86 85 86 83 82 81 83 83 86 88 92 97 100 98 98 98 96 97 97 97 96 96 96 96 96 96 95 95 96 96 96 95 95 95 95 95 95
96 94 91 88 88 87 88 86 86 87 89 90 92 90 89 89 92 94 96 97 97 96 97 96 96 96 96 96 95 95 95 95 95 95 95 95 97 95 95 95 95 95 96 96
91 90 92 88 89 90 88 90 92 95 95 94 91 94 95 95 95 96 96 95 95 94 97 96 96 95 95 96 95 95 94 95 94 95 95 95 94 95 95 96 96 96 96 96
92 93 90 91 94 93 92 96 95 95 96 95 95 94 94 95 96 96 96 96 97 97 96 96 95 95 95 95 93 94 94 94 96 96 95 95 96 96 96 95 93 93 92 89
93 92 93 93 94 95 96 96 95 94 96 96 94 94 95 96 96 96 93 91 98 96 96 95 95 96 95 95 94 94 94 96 96 96 95 98 97 96 96 99 100 98 96 93
94 92 93 94 93 95 96 96 96 96 96 96 96 96 95 96 96 97 98 96 97 94 94 95 95 92 85 80 80 82 83 84 84 83 85 89 93 94 92 87 83 82 88 99
95 95 95 95 94 95 96 96 97 96 96 97 97 97 97 97 97 91 92 98 96 96 94 89 81 76 73 76 83 86 87 88 90 93 95 92 87 83 82 85 91 96 100 100
93 94 96 95 88 86 90 96 97 100 100 100 98 98 97 99 100 93 86 80 80 81 80 74 70 67 68 75 79 80 82 85 87 90 90 90 88 83 80 88 98 100 100 97
95 95 94 91 91 94 94 95 97 98 100 100 100 100 97 95 97 100 98 97 93 92 96 91 88 87 87 86 86 87 87 90 96 96 96 93 88 90 97 100 100 94 88 86
92 94 98 100 100 100 100 99 100 100 99 100 100 100 100 100 99 99 97 95 94 93 92 84 77 73 78 86 89 89 93 96 93 87 82 86 98 100 98 99 97 94 92 92
96 93 92 96 94 92 91 93 98 100 92 92 100 100 99 98 96 92 89 88 88 85 80 78 78 79 78 82 98 100 99 92 90 90 91 95 99 100 100 99 97 92 92 94

GFSNGP_925_rhum_048.txt.gz
RH
77 73 68 60 56 54 55 63 64 52 44 36 34 31 31 31 32 29 27 27 40 48 53 54 59 63 66 69 75 76 75 75 77 80 83 80 77 79 86 92 93 97 100 100
89 72 67 62 55 52 52 54 57 50 45 34 31 33 36 35 35 34 30 28 29 42 50 54 53 58 62 64 68 76 80 80 79 82 86 89 89 90 94 99 99 100 100 100
77 72 64 73 58 50 48 41 48 58 50 34 32 34 37 34 36 36 34 30 29 34 42 50 53 51 56 58 61 68 77 81 82 85 89 92 95 97 99 100 100 100 100 100
96 81 82 42 47 44 47 49 54 52 46 45 38 27 30 35 34 36 35 33 32 31 38 38 41 50 53 60 60 62 74 82 85 89 97 99 99 100 100 100 100 100 100 100
97 96 69 47 39 39 55 30 46 40 52 66 52 35 29 30 33 35 35 38 34 28 26 30 44 54 66 82 82 81 88 93 95 100 100 100 100 100 100 100 100 100 100 100
93 97 86 41 48 58 56 60 67 74 77 74 72 69 35 26 27 31 35 39 41 36 38 46 59 66 84 100 99 100 99 100 100 100 99 100 100 100 100 100 100 100 100 100
81 95 79 62 54 59 67 57 67 62 70 75 81 65 52 52 49 31 31 33 51 68 73 70 78 84 96 100 99 100 100 100 100 100 100 100 100 100 100 100 100 100 100 100
85 97 87 53 70 64 58 64 62 61 69 74 71 69 66 61 56 52 58 69 79 85 92 94 93 93 99 100 100 100 100 100 100 100 100 100 100 100 100 100 100 100 100 100
82 76 59 64 69 65 64 68 64 68 62 58 66 69 66 64 71 78 83 90 89 93 95 93 94 94 98 100 99 100 100 100 100 100 100 100 98 100 100 99 100 100 100 100
76 57 59 54 54 52 61 67 63 57 54 57 67 70 72 70 74 78 80 86 84 85 89 93 90 91 97 95 94 96 100 99 98 97 99 98 98 100 100 100 100 100 100 99
66 54 69 51 63 79 70 64 62 61 55 61 63 66 76 75 76 78 82 82 83 89 94 99 100 100 98 94 89 93 93 93 93 92 92 95 98 100 100 100 99 99 98 96
82 97 94 91 81 77 78 83 78 67 65 71 73 71 70 86 87 83 86 87 88 88 89 90 93 96 95 91 86 89 93 93 93 92 91 93 96 100 100 100 100 100 98 92
92 86 92 87 83 75 76 73 71 74 68 71 77 80 78 81 77 78 78 80 80 82 82 83 85 88 88 89 90 91 90 88 87 85 84 84 87 92 96 98 97 97 96 96
81 87 88 85 92 78 75 71 69 68 69 69 68 67 70 73 77 82 86 90 92 92 92 91 90 90 88 87 86 87 88 88 89 94 98 98 97 97 97 97 97 98 95 94
88 85 86 82 78 80 75 74 78 81 78 79 80 82 84 86 87 88 92 93 93 95 98 99 98 99 97 98 97 98 98 98 97 96 96 97 97 97 97 96 96 96 96 96
85 88 82 85 85 83 82 84 86 86 82 82 83 85 87 89 91 93 95 94 90 94 98 99 98 98 97 97 97 96 97 97 96 96 97 96 96 96 96 96 96 96 96 96
88 91 91 89 88 88 88 84 83 84 82 83 86 88 86 86 87 91 96 98 99 99 98 97 97 96 97 97 96 96 96 96 96 95 95 96 96 96 96 95 95 95 95 96
92 95 91 90 88 85 88 85 84 85 87 94 95 94 93 90 92 94 96 97 96 96 96 96 96 96 96 96 95 96 95 96 95 96 95 94 95 95 95 95 96 96 97 96
92 93 94 90 93 86 90 90 92 94 95 95 94 94 95 95 96 96 96 95 94 92 97 96 96 95 95 96 94 94 94 95 98 99 96 94 97 96 96 95 96 95 94 90
93 93 93 93 92 92 92 96 95 95 96 95 94 93 93 96 96 96 96 96 97 98 97 96 95 95 96 95 94 94 94 95 97 97 97 95 94 95 95 95 95 93 89 89
94 93 94 93 94 95 96 96 94 94 96 96 94 95 95 97 96 96 93 91 98 96 96 95 94 94 91 88 84 86 86 87 89 91 92 92 92 94 92 89 86 86 90 97
94 93 94 94 93 95 96 96 96 96 96 96 96 96 95 96 96 98 100 98 100 90 83 79 76 73 72 71 75 77 78 79 83 84 86 85 81 78 77 78 81 89 97 100
94 94 94 94 94 96 96 96 97 97 96 97 97 97 98 99 95 91 94 100 77 68 66 66 63 65 70 75 78 79 82 85 89 89 86 83 80 77 76 85 96 98 98 96
95 95 96 96 94 89 91 97 99 100 100 100 96 96 95 100 100 100 88 83 82 81 85 82 78 76 75 75 75 76 79 85 90 91 90 86 84 85 90 96 95 92 88 82
96 96 93 91 90 95 96 95 98 99 100 100 100 100 99 94 96 100 96 94 88 85 84 81 80 82 86 89 89 92 96 95 94 88 82 83 91 96 97 97 96 95 93 90
93 97 100 100 100 100 98 94 100 100 100 100 100 100 100 100 98 95 93 89 84 79 76 74 74 75 80 88 92 95 92 86 84 82 83 90 97 100 100 99 95 92 87 86
97 95 94 98 95 91 90 91 94 100 95 93 100 100 100 97 92 89 86 84 82 80 78 78 77 77 86 98 96 97 92 90 91 95 97 98 98 96 94 90 84 84 85 87